Wind_Speed
18 18 17 15 15 16 17 18 19 23 28 31 33 35 36 37 37 37 38 40 42 41 42 42 42 42 42 42 42 42 41 39 37 36 35 35 35 34 34 34 34 34 34 34 34 33 32 31 31 29 27 26 25 24 23 22 22 22 21 20 20 20 20
16 16 16 16 15 16 17 18 20 24 28 30 33 35 36 37 38 39 39 41 43 43 43 43 43 43 43 43 42 42 41 40 38 37 36 35 34 34 34 35 34 34 35 35 35 33 32 31 31 30 29 28 27 25 24 23 23 23 22 22 21 21 22
16 16 16 17 16 17 18 17 20 25 28 30 32 35 37 40 41 42 41 41 43 43 43 44 44 43 43 43 41 41 41 40 39 38 37 36 36 35 35 34 35 35 34 34 34 34 33 32 31 31 30 29 28 27 26 25 24 24 23 23 23 23 23
17 18 18 19 19 19 18 17 19 24 29 32 36 38 39 41 43 43 43 43 43 42 42 43 43 43 43 41 40 40 40 39 38 38 38 37 36 35 34 34 35 35 34 34 34 34 34 33 32 31 31 30 30 29 28 27 25 25 25 25 25 25 25
19 19 17 17 18 16 15 16 18 24 29 32 36 38 39 40 40 40 41 42 42 43 43 43 42 41 41 40 39 38 38 38 38 37 37 36 35 33 33 34 35 35 35 35 35 34 34 33 33 32 32 31 31 30 30 29 28 27 27 27 28 27 27
18 18 16 16 16 16 16 17 20 26 30 32 36 37 37 37 37 38 39 39 40 40 40 41 41 40 39 39 39 38 37 38 37 37 37 36 34 33 34 35 35 36 36 35 35 35 35 34 34 34 33 32 32 31 31 31 30 29 29 29 29 29 29
18 17 18 18 17 17 18 18 20 27 31 31 32 33 32 34 36 37 38 37 38 39 38 39 39 39 39 39 40 39 38 38 38 38 37 36 35 35 35 35 34 35 35 33 33 34 35 35 35 35 34 33 33 32 32 32 32 31 30 30 31 31 30
19 18 19 19 18 19 19 17 19 24 27 27 28 29 31 34 34 35 36 37 38 38 38 39 40 40 40 39 39 39 39 38 38 38 38 37 36 36 36 35 34 34 33 32 33 34 34 36 36 36 35 34 34 34 33 33 33 32 32 31 32 32 32
20 19 20 20 20 18 17 16 18 22 25 26 28 30 32 33 33 34 36 37 37 37 39 41 41 42 41 39 39 39 39 39 38 38 38 38 37 37 37 36 35 34 33 33 33 33 34 35 36 36 35 35 36 35 35 35 34 34 33 33 33 33 33
18 19 20 19 18 16 15 15 15 16 18 22 26 28 30 32 33 34 35 36 36 38 41 41 41 41 40 39 39 39 39 38 38 38 38 37 37 38 38 37 36 35 35 35 34 33 34 34 35 35 35 36 36 36 36 36 36 36 35 35 35 34 34
17 18 18 17 16 15 15 15 14 14 15 20 24 27 29 32 32 33 35 36 37 38 40 40 39 38 39 39 38 37 38 38 38 37 37 37 37 38 38 37 36 36 36 36 35 35 34 34 34 34 35 37 38 38 38 38 38 37 37 36 36 35 35
15 15 16 17 16 15 16 16 16 16 16 19 24 26 28 31 31 33 34 35 37 37 37 38 37 37 38 38 37 37 37 38 37 37 37 37 37 38 38 37 37 37 37 37 36 36 35 34 34 35 36 38 38 39 39 39 38 38 38 37 36 36 36
14 14 15 16 16 16 16 16 17 18 17 19 25 27 29 30 31 32 33 34 36 36 36 37 37 37 37 37 37 37 37 38 38 38 38 38 39 38 38 37 37 37 38 37 37 36 35 35 35 36 38 39 39 39 39 38 38 38 38 37 36 36 36
15 15 14 14 15 16 17 17 17 17 16 18 23 26 27 29 31 32 32 33 34 35 35 36 37 37 37 37 37 37 38 38 38 39 39 39 39 38 38 37 38 38 38 37 36 37 37 37 37 37 38 39 40 40 39 38 37 38 38 37 37 37 37
15 14 14 15 16 17 18 17 16 16 16 18 21 24 25 27 29 30 30 31 33 35 36 36 37 37 37 37 37 37 38 39 38 38 39 38 38 38 38 37 37 37 37 36 37 37 37 38 38 37 37 38 39 39 39 38 38 39 39 38 38 38 38
15 15 16 17 17 17 17 18 17 17 17 16 19 23 25 26 29 30 31 32 34 36 36 37 37 37 36 36 37 38 38 38 37 37 37 38 38 38 38 37 36 36 36 36 37 37 37 37 38 38 38 39 39 38 38 38 39 40 40 40 39 39 38
15 16 17 17 18 18 18 17 16 16 16 16 20 24 26 27 30 31 31 32 34 35 36 36 36 36 35 35 36 37 36 36 36 36 37 38 38 38 37 37 36 36 36 36 37 37 37 37 37 38 39 39 39 39 38 39 41 41 41 41 41 40 38
15 16 16 17 17 16 16 16 15 16 16 18 22 26 27 28 28 29 30 32 33 33 33 34 34 33 33 34 35 35 35 35 35 35 36 37 37 37 37 37 37 37 37 37 37 37 37 37 38 39 40 39 39 40 39 40 42 42 42 42 42 41 40
16 17 17 17 16 16 16 15 15 17 18 20 24 29 31 31 30 31 32 32 31 31 32 32 32 32 33 35 36 35 35 36 35 36 36 37 37 38 37 37 37 38 38 38 38 37 37 38 39 40 40 39 39 40 40 41 42 42 42 43 43 42 41
10 12 12 12 13 13 14 13 12 14 17 21 26 28 30 30 30 30 30 29 29 31 31 31 31 32 34 36 36 35 36 36 36 36 37 37 37 37 37 37 38 39 39 38 37 37 38 38 39 39 40 40 40 40 40 41 42 42 42 43 43 42 41
5 8 8 9 10 9 9 9 9 10 14 19 22 22 24 25 25 24 25 27 29 30 30 30 31 32 34 35 35 35 36 36 36 36 37 37 37 37 37 38 38 39 38 38 38 39 39 38 39 40 40 40 40 39 39 41 42 41 41 42 42 41 40
7 9 9 9 10 9 9 11 11 12 14 18 19 20 22 23 23 23 24 26 27 28 30 30 30 31 33 33 34 35 35 36 36 36 37 37 37 36 37 38 38 38 38 38 38 38 38 38 39 40 40 40 39 39 40 41 41 41 41 41 39 38 38
9 10 11 11 12 13 14 17 18 19 19 19 18 20 21 23 24 24 24 24 25 26 28 29 29 31 32 33 34 35 36 37 37 37 37 37 36 36 37 38 39 39 38 37 37 37 37 38 39 39 39 39 39 40 40 40 41 40 39 39 37 36 36
11 11 11 12 15 17 19 22 22 23 24 22 17 15 20 24 26 25 23 23 24 24 25 26 28 30 32 34 35 37 38 38 38 38 37 36 36 37 38 39 39 39 39 38 38 38 38 38 37 38 39 39 40 40 39 39 39 38 38 38 37 36 36
12 12 12 14 17 18 20 23 25 25 25 23 18 14 15 22 25 24 22 23 24 24 24 25 27 30 32 35 37 38 38 39 39 39 37 37 37 38 39 40 40 39 39 38 38 37 37 36 35 36 37 38 39 39 38 38 38 37 37 38 37 36 36
12 11 11 14 17 19 22 25 25 24 22 20 18 17 18 19 19 17 16 18 19 20 22 24 28 30 31 33 35 36 37 37 38 38 38 37 38 39 40 40 39 37 36 36 36 35 34 33 34 34 35 36 36 36 37 37 36 36 37 37 36 37 37
13 13 14 14 16 19 22 25 25 23 21 21 21 21 20 21 20 16 14 12 10 7 9 13 20 24 27 30 31 33 35 36 36 38 38 39 40 39 39 38 37 36 35 35 34 33 32 32 33 33 33 34 34 34 35 35 35 35 36 36 36 36 36
13 15 15 16 17 18 19 21 22 23 22 23 25 23 22 23 21 18 16 15 12 8 6 3 4 11 18 25 29 31 33 35 36 37 38 38 38 37 36 36 36 35 34 33 32 31 31 32 31 31 31 31 31 32 33 33 33 34 34 35 35 35 36
12 12 12 13 14 16 17 17 18 20 21 22 24 24 23 23 20 17 16 14 12 9 8 7 4 1 6 15 24 30 33 35 37 38 37 37 36 35 35 35 34 33 32 31 30 30 30 30 29 28 28 28 28 29 30 31 32 32 33 34 34 34 35
11 11 11 12 13 15 17 16 16 18 21 22 22 21 20 20 18 15 14 13 10 9 8 7 6 5 4 6 14 24 30 33 36 37 38 37 36 35 33 32 31 31 30 30 29 28 27 27 27 26 25 25 26 27 28 29 30 31 31 32 32 32 33
11 12 12 14 15 15 16 17 16 18 20 20 20 19 18 18 17 15 14 12 10 9 8 8 8 7 7 6 7 15 23 28 32 34 36 36 35 34 33 31 29 28 28 28 28 27 25 25 25 25 24 24 24 24 26 26 27 28 28 28 28 29 30
12 13 15 15 15 14 15 17 17 18 18 18 19 19 18 18 18 16 13 11 10 10 9 9 9 8 9 9 9 10 16 23 27 30 32 33 33 33 33 31 29 28 27 27 27 26 25 24 24 23 23 22 22 23 24 25 25 26 25 24 24 25 25
11 12 14 15 16 15 14 15 15 15 15 16 18 20 20 19 18 17 14 13 12 11 10 10 9 8 9 11 10 7 12 20 24 26 27 28 29 29 29 29 29 27 26 25 25 23 22 22 21 21 21 20 20 21 23 24 24 24 23 22 22 22 22
11 12 15 18 19 16 13 12 13 13 13 14 16 19 20 19 18 16 14 13 13 11 11 11 10 9 9 10 9 6 10 17 20 21 21 21 21 21 21 22 24 24 24 24 24 22 21 21 21 22 22 21 21 21 21 21 22 22 21 21 21 20 20
11 13 15 16 17 15 11 9 11 13 13 13 16 19 20 19 18 16 14 14 13 12 12 11 10 10 9 9 8 5 8 13 15 18 19 19 18 16 14 14 17 19 20 22 22 22 22 21 22 23 24 22 21 20 19 19 20 21 20 19 17 16 15
11 14 15 16 16 15 13 10 12 14 15 15 18 21 21 20 18 16 15 14 14 13 11 10 9 9 9 7 6 3 6 10 14 17 20 21 21 18 14 11 11 13 15 16 18 19 20 20 20 21 21 20 19 18 18 18 19 18 16 15 14 12 11
12 13 15 17 16 15 14 13 14 15 16 17 19 20 20 19 18 16 15 14 13 12 11 9 8 9 8 7 5 1 6 11 15 18 20 20 21 20 18 16 12 9 9 10 12 14 16 16 17 16 16 16 15 15 15 15 14 13 13 13 12 11 10
16 15 16 17 16 15 13 11 11 12 13 15 18 18 18 18 17 15 14 13 11 11 11 10 10 10 9 7 5 2 7 13 16 18 20 20 20 21 21 20 19 16 12 8 7 8 9 11 12 11 11 11 11 11 11 11 12 12 12 11 10 10 9
Wind_Direction
191 195 194 195 195 195 196 193 190 190 189 189 190 191 191 191 192 191 192 193 195 197 198 199 200 201 202 204 206 207 208 209 209 210 212 214 215 216 217 217 219 220 221 222 224 225 226 225 224 227 231 235 239 242 246 247 244 242 244 247 249 250 249
193 197 193 193 195 196 198 194 191 191 190 190 190 190 191 192 192 193 193 194 195 196 197 198 199 201 202 204 205 206 207 208 209 210 212 214 217 218 219 220 220 221 222 223 225 226 226 226 226 228 231 235 238 241 244 247 245 243 243 245 248 250 248
197 198 194 193 194 195 196 191 192 193 190 189 189 190 192 193 193 194 194 194 196 197 197 198 199 200 202 204 205 207 207 208 208 209 211 214 217 219 220 221 222 223 224 224 225 226 227 228 229 230 231 235 238 240 242 245 246 244 243 245 248 249 249
199 198 195 195 195 196 194 190 191 192 192 191 191 192 193 193 194 194 195 196 196 196 197 198 199 200 202 203 205 207 208 208 209 210 212 215 217 218 219 220 223 223 224 225 225 226 228 229 230 231 233 236 238 240 242 243 244 244 244 245 247 249 250
199 198 196 196 198 196 191 191 193 192 193 193 192 193 194 194 194 195 196 197 197 197 198 198 199 201 202 203 205 207 209 210 210 211 213 215 216 217 218 220 222 223 225 226 226 226 227 228 230 232 233 235 237 239 241 242 243 244 244 245 247 249 250
197 196 196 196 197 196 192 193 194 192 193 192 192 193 192 192 193 195 197 198 198 199 199 199 199 200 202 203 205 208 209 211 211 212 214 215 215 216 218 221 223 224 225 225 225 226 226 228 230 232 233 234 235 237 239 241 242 243 243 244 246 248 250
194 193 196 196 195 194 194 194 192 192 194 193 191 191 190 191 193 194 196 197 198 198 197 198 199 201 202 203 205 207 208 210 212 213 214 214 215 216 219 221 222 225 225 224 225 226 226 228 230 232 233 233 234 236 238 240 241 242 242 242 245 247 248
195 193 196 196 194 195 194 191 189 191 191 189 187 187 189 192 193 193 194 196 197 196 196 198 199 200 203 204 205 207 208 210 211 212 213 214 215 217 218 220 221 223 224 224 225 226 227 228 229 232 233 233 234 236 238 240 241 241 241 241 243 245 246
195 194 196 196 194 194 190 188 188 187 186 185 186 188 188 190 191 192 194 195 195 195 197 199 199 200 202 203 204 206 208 209 211 212 213 213 214 217 218 220 221 222 223 224 225 226 228 229 230 231 232 234 235 235 237 239 241 241 241 241 242 243 243
196 195 198 196 192 191 185 183 184 182 184 185 187 188 188 189 191 192 193 193 194 196 198 198 199 200 200 202 204 206 206 208 210 211 212 213 214 217 219 220 221 221 223 225 225 227 229 231 232 232 233 234 235 235 236 237 238 239 240 241 242 242 243
194 194 196 193 188 185 179 177 179 181 186 187 187 187 188 189 190 191 192 193 194 197 198 198 198 198 199 201 203 205 206 207 209 210 211 213 215 217 219 220 221 221 223 225 225 227 229 231 231 232 232 234 235 235 235 236 236 237 239 241 241 242 243
191 191 191 188 181 179 177 177 181 184 185 187 187 188 189 189 190 190 192 194 195 196 196 196 197 197 199 201 202 204 206 207 208 209 211 213 215 218 220 220 220 221 222 223 225 226 228 229 230 231 232 234 235 235 235 235 235 236 238 240 240 241 243
186 188 187 183 178 177 177 178 183 184 184 186 187 188 189 189 190 191 192 193 195 196 195 195 196 197 198 200 201 204 206 207 208 209 211 213 216 218 220 221 221 221 222 223 223 225 226 228 229 231 232 234 235 235 236 235 235 236 238 238 239 240 241
184 185 180 177 176 176 178 181 184 183 183 185 186 188 189 189 191 192 192 193 193 194 195 195 195 196 198 200 202 204 206 208 209 210 212 213 216 218 220 221 222 222 223 222 222 224 225 227 229 231 232 234 236 237 237 237 236 237 238 238 238 239 240
182 179 173 174 177 178 180 182 182 181 182 184 184 185 187 188 191 192 192 192 193 194 196 195 195 197 198 200 202 204 207 208 209 210 212 213 215 217 219 221 222 223 223 223 223 224 225 227 229 231 233 234 236 237 238 238 238 238 238 238 237 238 239
180 176 174 178 179 180 182 182 181 181 180 180 181 184 185 187 190 192 192 191 192 195 196 195 195 197 198 200 203 205 207 208 209 210 211 212 214 216 218 220 222 223 224 224 224 225 226 227 229 231 233 235 237 237 238 238 240 240 240 240 239 238 239
182 177 177 180 180 180 182 182 180 179 177 180 183 184 185 188 191 193 192 192 193 195 195 194 195 197 198 201 204 206 207 207 209 210 211 213 214 215 217 219 220 222 224 224 225 226 226 227 228 230 233 235 237 238 239 239 241 242 242 242 241 240 239
180 178 180 182 181 179 179 177 175 176 180 184 184 185 188 189 190 192 193 194 194 194 193 193 195 197 198 202 205 206 206 207 208 210 211 213 214 215 216 217 219 221 222 223 224 225 226 227 229 231 233 235 237 239 240 241 243 244 244 244 244 242 240
180 180 182 181 177 175 176 176 178 181 183 183 184 188 190 189 189 193 195 194 192 192 192 193 194 195 198 203 205 205 206 206 207 209 211 213 214 215 215 216 217 219 221 223 224 225 226 227 229 231 233 234 237 239 241 243 244 245 246 246 246 245 243
177 175 172 170 169 172 173 173 175 177 180 184 187 191 191 190 193 195 194 192 191 192 192 192 192 195 199 203 205 205 206 206 207 209 211 213 213 214 215 215 217 219 220 222 223 224 225 227 229 231 233 234 236 238 241 243 245 246 247 247 248 247 246
115 129 132 137 140 145 150 151 154 160 171 181 185 187 189 191 194 193 192 192 192 192 193 192 193 196 201 204 205 205 206 206 207 209 211 212 213 213 214 216 217 219 219 220 222 223 225 226 228 231 232 234 236 238 240 243 244 246 247 248 249 248 247
88 104 113 120 125 129 132 135 138 144 155 168 175 180 186 190 190 189 191 193 192 192 193 194 195 198 201 204 205 206 206 206 207 209 211 211 212 212 214 216 218 219 219 220 222 224 225 226 228 230 232 234 235 236 239 242 244 245 246 248 249 248 248
71 89 98 102 104 106 111 119 125 131 138 147 160 174 184 188 189 191 193 194 194 194 193 194 196 199 201 204 206 206 207 207 207 209 211 211 210 212 214 216 218 219 219 219 221 223 224 226 228 230 232 233 234 235 237 241 243 244 245 247 248 247 246
55 72 86 95 98 97 99 105 111 117 121 121 127 154 177 185 188 189 191 194 195 196 196 197 199 201 202 205 207 208 208 208 209 209 210 210 210 212 214 216 219 220 219 218 220 222 224 225 228 230 231 233 234 235 237 240 242 243 244 245 246 245 245
48 57 67 80 91 96 99 100 100 99 100 98 94 110 149 174 183 184 188 194 197 197 199 202 204 205 205 207 210 210 210 209 210 210 211 211 212 214 215 217 219 220 220 219 220 222 224 225 227 229 231 233 235 236 237 239 242 243 243 244 244 244 245
44 51 57 67 80 92 95 93 90 86 84 83 83 90 110 136 152 158 169 183 191 196 202 207 211 212 211 211 211 212 212 211 211 212 212 213 214 216 217 218 219 219 219 220 221 223 224 225 226 229 232 233 235 236 237 238 241 242 243 244 244 244 244
36 43 52 58 68 81 85 85 84 83 81 79 80 85 95 104 106 104 112 123 132 156 189 204 213 216 217 216 214 213 213 213 213 214 214 215 217 217 218 219 219 219 219 219 220 222 223 225 226 228 231 233 234 236 238 238 239 241 242 243 243 243 243
30 33 42 52 61 71 78 81 82 81 78 76 76 79 87 91 87 84 84 80 68 61 70 105 190 214 218 219 218 216 215 215 215 216 217 217 217 217 218 219 219 220 219 218 219 220 222 224 226 227 231 233 234 236 238 239 240 241 242 244 244 244 243
27 26 28 36 49 62 70 75 76 74 73 72 71 73 79 82 80 76 70 58 45 46 51 47 41 1 229 220 218 218 217 215 216 216 217 218 218 217 218 219 219 219 219 217 217 219 221 223 225 227 230 232 234 236 238 239 241 243 244 245 246 245 245
21 22 22 24 34 50 62 67 69 68 66 66 68 69 71 75 75 67 56 45 38 42 41 30 22 6 326 252 224 220 218 217 216 215 216 217 217 217 218 218 217 217 217 217 216 217 219 222 223 224 227 230 232 234 236 238 241 244 245 247 247 247 248
14 16 18 21 27 42 56 61 64 66 61 60 67 70 66 68 70 60 48 43 41 37 24 13 9 359 339 317 265 233 223 219 217 215 215 215 214 215 216 215 214 214 214 215 215 215 217 219 221 222 223 226 229 232 235 237 240 243 245 247 248 249 250
10 14 16 17 21 33 51 59 59 60 59 57 64 71 69 68 68 61 51 48 46 35 17 4 358 352 342 329 305 260 230 221 217 214 214 213 212 213 214 213 212 211 211 211 212 214 216 217 218 219 221 223 226 229 233 237 239 242 243 244 245 246 248
5 6 9 12 16 25 47 61 59 57 57 54 60 70 72 70 66 62 55 48 40 28 16 7 358 349 342 331 317 280 233 221 215 211 209 209 209 210 211 211 211 210 209 209 210 212 214 215 215 216 216 219 222 225 231 236 238 238 239 240 243 245 246
359 0 4 8 13 22 44 64 66 67 63 57 61 70 72 70 67 62 56 48 37 26 18 13 4 355 346 333 320 286 231 220 212 202 197 195 196 199 202 205 208 207 209 211 212 211 212 212 213 215 217 218 220 222 225 230 234 237 239 240 242 243 245
355 359 1 3 9 22 41 64 76 77 71 64 65 68 66 65 63 58 52 46 35 26 23 17 6 359 354 343 328 284 225 210 198 185 177 171 171 171 175 187 197 200 205 212 215 216 217 217 219 223 225 224 222 221 221 224 232 236 237 236 236 236 237
354 358 357 358 7 21 33 52 68 70 66 62 62 62 59 57 56 53 48 42 34 28 26 22 11 4 3 358 344 285 209 185 173 169 166 162 158 150 140 145 170 187 197 206 212 216 220 223 226 230 231 228 226 225 227 232 238 238 231 223 218 216 216
350 353 352 354 1 11 21 37 52 58 60 61 61 61 59 56 55 54 49 44 39 34 32 30 26 21 17 16 8 298 182 164 157 158 157 155 153 146 134 123 120 137 169 193 206 213 218 222 227 232 233 231 230 231 231 233 232 221 209 202 198 195 196
346 350 353 355 357 359 7 27 48 57 65 68 67 65 62 59 58 57 54 49 44 41 41 42 41 35 28 27 32 85 155 154 153 153 152 149 148 147 142 130 115 102 102 124 161 187 200 209 215 221 225 225 227 226 214 199 186 177 173 170 166 164 165
Height
699 702 705 708 711 714 715 715 718 722 726 730 735 740 744 749 753 756 759 762 765 768 772 775 778 782 785 788 791 794 797 800 803 806 808 810 811 814 816 818 820 821 822 824 825 826 828 830 832 833 834 836 837 838 840 841 842 843 844 845 845 846 847
699 700 702 705 708 710 711 712 716 719 722 726 731 736 740 744 748 751 754 757 760 764 767 771 775 778 781 784 788 791 794 797 800 803 805 807 809 811 813 815 817 818 820 822 823 825 827 829 830 832 833 834 835 837 838 839 840 841 842 843 844 844 845
696 697 698 700 702 704 706 709 713 715 718 722 726 730 734 737 742 746 750 753 757 760 764 767 771 774 778 781 785 788 791 794 797 799 802 804 807 809 811 813 815 817 818 820 822 824 825 827 828 830 831 832 834 835 836 837 838 839 840 841 842 842 843
691 691 693 695 695 697 700 703 707 711 714 717 720 724 728 732 737 741 746 750 753 757 760 764 768 771 775 778 782 786 788 792 794 797 799 801 804 807 809 811 813 815 816 818 820 822 824 825 827 828 830 831 832 833 834 835 836 837 838 839 840 840 841
686 687 689 692 692 695 698 700 703 706 710 713 716 721 725 730 736 740 744 747 751 754 757 762 766 769 773 776 779 783 786 790 792 794 797 799 802 805 807 808 810 812 814 815 817 819 821 823 825 826 828 829 830 831 832 833 834 835 836 837 837 838 839
681 684 686 688 689 692 694 695 698 701 705 709 712 717 723 729 734 738 742 746 749 753 756 760 764 766 770 773 777 780 784 787 790 792 795 797 800 802 804 806 808 809 811 813 815 817 819 821 823 824 825 826 828 828 829 830 831 833 834 835 835 836 837
674 678 680 681 683 686 688 690 693 697 702 706 711 717 722 727 731 735 740 743 747 751 755 758 761 764 768 770 774 777 780 784 787 790 793 795 798 800 801 803 805 807 809 811 813 815 817 818 820 821 823 824 825 826 827 828 829 830 831 832 833 834 835
667 670 673 675 677 679 682 685 689 694 700 706 711 715 719 724 728 732 737 740 744 748 751 754 758 761 765 768 771 774 777 780 783 787 790 792 795 796 798 801 803 805 807 809 811 812 814 816 817 819 820 821 823 824 825 825 826 828 829 830 830 831 832
660 663 665 667 670 673 677 681 685 691 697 702 706 710 715 720 724 729 733 737 741 745 747 751 754 757 761 765 768 771 774 777 780 784 786 789 791 793 795 797 800 802 805 806 808 810 811 813 814 816 818 819 820 821 822 823 824 825 826 827 828 829 830
656 659 660 662 666 669 674 679 684 690 695 698 702 707 712 716 720 725 729 734 738 740 743 747 750 754 758 762 765 768 771 774 777 780 783 786 788 790 792 794 797 799 801 803 805 807 809 810 812 814 815 816 817 818 819 820 821 822 823 824 825 826 827
653 655 657 661 665 669 674 678 683 688 691 694 698 703 707 712 716 721 725 729 733 736 740 744 748 752 755 758 762 765 768 771 774 777 780 783 785 787 789 792 794 796 798 800 802 804 806 808 809 811 812 813 814 815 815 816 818 819 820 821 822 823 825
650 653 656 660 664 668 672 676 679 683 686 690 695 699 704 709 713 717 721 725 729 733 737 741 745 749 752 755 759 762 765 768 770 773 776 779 782 784 787 789 791 793 794 796 798 800 802 804 806 808 809 809 810 811 812 813 815 816 817 818 820 821 822
646 649 653 656 661 665 669 673 676 679 683 686 691 695 700 705 709 713 718 722 726 731 735 738 742 745 749 752 755 758 761 764 766 770 773 776 778 781 784 786 788 790 791 792 794 797 799 801 803 804 805 806 807 808 809 810 812 813 814 815 817 818 819
644 647 651 655 659 664 667 671 674 677 680 684 688 693 698 702 707 710 715 719 723 728 731 735 738 742 745 748 752 754 757 760 763 766 769 772 775 778 780 783 785 787 788 790 791 793 795 796 798 800 801 803 804 805 806 808 809 810 811 812 814 815 815
644 648 652 656 659 661 664 668 671 674 678 681 686 691 696 700 705 709 713 717 721 724 728 731 735 738 741 744 747 750 753 757 760 763 766 768 771 774 777 780 782 784 786 788 789 790 791 793 794 796 798 799 800 801 803 805 805 806 807 808 810 811 812
643 647 650 653 656 658 661 664 667 671 675 679 684 689 693 697 701 705 709 712 716 720 723 727 731 734 737 741 743 747 750 753 757 760 763 765 767 770 773 776 779 782 784 785 786 787 788 790 791 793 794 795 796 798 799 800 801 801 803 804 806 808 809
642 644 647 649 651 654 657 661 665 670 674 677 681 685 689 693 697 701 705 709 712 716 720 724 727 730 734 737 741 744 747 751 754 757 759 761 764 766 769 773 776 778 780 782 783 784 785 786 788 788 790 791 792 794 795 796 796 797 799 800 802 804 806
639 642 644 646 649 652 656 661 665 669 671 674 678 682 686 689 694 699 702 705 709 713 718 722 724 728 732 735 738 741 744 748 751 754 756 758 761 763 765 769 772 774 776 778 779 781 782 783 784 784 786 787 788 790 790 791 792 793 795 797 798 800 802
635 638 639 642 646 650 654 658 660 663 666 670 674 678 681 686 690 693 697 701 707 711 715 718 722 726 729 732 735 738 741 744 747 750 752 755 757 759 762 764 767 769 771 773 775 777 778 779 779 780 782 783 784 785 786 787 789 790 792 793 794 797 799
635 636 638 642 645 648 651 655 658 661 665 669 673 676 680 685 688 691 696 701 706 709 712 716 720 723 725 728 731 734 737 740 743 746 748 751 753 756 758 760 761 764 766 769 771 773 773 774 775 776 778 779 780 781 783 784 785 786 788 790 791 794 796
638 639 641 644 647 650 653 656 659 663 666 670 674 678 682 686 689 693 698 701 704 707 710 713 716 719 722 724 727 730 733 736 739 742 744 747 749 751 753 755 757 759 762 764 766 767 768 770 771 772 773 774 776 778 778 779 781 783 784 786 788 790 792
643 642 644 645 647 650 653 656 660 663 667 671 675 678 682 685 689 693 696 699 702 704 707 710 713 716 718 721 724 727 729 732 735 737 739 742 745 747 749 751 753 755 757 759 761 762 764 765 766 767 768 770 772 773 773 774 777 779 780 782 785 787 789
645 644 645 645 647 650 653 656 660 663 667 671 675 678 681 684 688 691 694 697 700 702 705 708 710 712 715 718 720 723 725 728 730 732 735 737 740 742 744 746 748 750 752 754 756 757 758 760 761 763 764 766 767 768 769 770 772 775 777 779 781 784 785
649 648 648 647 649 652 655 658 661 664 667 671 674 677 679 682 685 688 692 695 697 700 703 704 707 709 711 713 716 718 720 723 725 727 730 732 735 737 739 741 743 745 747 749 750 751 753 755 757 759 760 761 762 763 765 766 768 771 773 775 777 779 780
655 654 654 652 653 655 658 661 663 665 668 671 674 677 677 679 683 686 689 692 695 697 699 701 703 705 707 709 711 713 716 718 721 723 725 728 730 732 734 736 738 740 742 744 745 746 748 751 753 754 755 757 758 759 761 763 764 767 769 770 773 774 775
662 661 660 659 659 659 660 662 664 666 669 672 674 676 677 679 682 685 688 690 692 695 696 698 700 702 704 706 708 710 712 715 717 719 721 724 726 727 729 731 733 736 738 740 741 743 745 747 749 750 752 753 755 756 758 759 761 763 764 766 768 770 771
667 666 665 665 665 663 663 663 665 668 671 673 675 676 677 679 682 685 688 690 692 694 696 697 698 700 702 704 705 707 709 711 713 715 717 719 721 723 725 727 729 732 733 735 738 740 741 743 745 747 748 750 751 753 754 755 757 759 760 762 764 765 767
672 671 670 669 669 667 666 666 668 670 673 674 676 676 678 679 682 686 688 690 692 694 695 696 697 698 699 701 702 704 706 708 710 712 714 716 718 720 722 724 726 728 730 732 734 736 738 740 742 744 745 747 748 750 751 752 754 755 756 758 759 761 763
678 677 675 674 672 671 670 669 670 672 674 675 676 677 678 680 682 686 688 690 692 693 694 695 695 696 696 697 699 700 701 703 705 707 710 712 714 716 718 720 722 724 726 729 731 733 735 737 739 741 742 744 745 746 747 749 750 751 753 754 755 757 758
682 681 679 677 675 674 672 672 672 673 674 675 676 678 680 681 683 686 687 689 691 692 692 693 693 694 694 694 695 696 697 699 701 703 705 707 709 712 714 717 719 721 723 726 728 730 732 734 736 738 739 741 742 743 744 746 747 748 749 750 752 753 754
685 684 682 680 678 677 675 675 675 675 676 677 679 680 682 682 683 685 687 688 689 690 690 691 691 691 691 692 692 693 694 695 697 699 700 703 705 708 710 713 716 718 720 723 725 727 729 730 733 734 736 737 739 740 741 743 744 745 746 747 749 750 751
688 686 685 682 681 680 678 678 677 677 678 680 681 682 683 683 684 685 687 688 688 689 689 690 690 690 690 690 690 690 691 693 694 695 698 700 702 704 707 709 712 715 717 719 721 723 725 727 729 731 733 735 736 737 739 740 741 742 743 745 746 747 748
690 688 687 686 684 683 681 680 680 680 681 682 682 683 683 684 685 686 687 687 688 688 689 689 689 690 689 689 689 689 690 691 692 693 696 698 700 703 705 707 710 712 714 716 718 721 723 725 727 729 730 732 734 735 736 737 738 739 740 742 743 745 746
693 690 689 688 686 686 684 683 683 684 684 684 685 685 685 685 686 687 687 688 688 688 688 688 689 689 689 689 688 688 689 690 691 693 695 698 700 703 705 706 708 710 712 714 716 718 720 722 724 726 727 729 731 733 734 735 736 737 738 739 741 742 743
698 695 694 692 691 690 689 688 688 687 687 687 687 686 686 686 686 687 687 687 687 687 687 687 688 688 688 688 688 688 689 690 692 693 694 697 699 701 704 706 707 709 711 713 715 717 719 720 722 723 725 727 728 730 731 732 733 734 735 737 738 740 741
700 698 696 694 693 693 692 690 689 687 686 686 685 684 685 686 686 686 686 686 686 686 686 686 687 687 688 688 687 688 689 690 691 693 694 696 698 700 703 705 707 709 710 712 714 716 717 719 721 722 723 725 726 728 729 730 730 732 734 735 737 739 740
701 698 696 694 693 691 691 690 688 686 686 685 685 685 686 687 687 688 688 687 687 687 687 687 687 687 688 688 688 688 689 690 691 693 694 696 698 700 702 705 707 709 710 712 713 715 716 718 720 721 722 724 725 726 727 728 729 730 732 734 736 738 739
702 698 696 694 693 692 692 692 691 690 689 688 687 687 688 688 689 690 690 689 689 688 688 688 688 688 689 689 689 689 689 690 692 694 695 697 699 700 702 704 706 709 711 713 713 714 716 717 718 720 721 722 723 724 726 727 728 729 731 733 736 737 739